This is the latest recevied weather packets stored in our database for station/object KN1OBI-13. If no packets are shown the sender has not sent any weather packets the latest 10 day(s).
| Time | Temp. | Humidity | Pressure | Rain* | Wind** | Luminosity | Snow |
|---|---|---|---|---|---|---|---|
| 1777109900 | -0.56° C | 79% | 996.7 hPa | 0 mm | - | - | - |
| 1777109300 | -0.56° C | 78% | 996.5 hPa | 0 mm | - | - | - |
| 1777108100 | 0° C | 78% | 996.5 hPa | 0 mm | - | - | - |
| 1777107500 | 0° C | 77% | 996.5 hPa | 0 mm | - | - | - |
| 1777106900 | 0° C | 77% | 996.5 hPa | 0 mm | - | - | - |
| 1777106301 | 0° C | 77% | 996.4 hPa | 0 mm | - | - | - |
| 1777105701 | 0° C | 77% | 996.5 hPa | 0 mm | - | - | - |
| 1777105100 | 0.56° C | 76% | 996.4 hPa | 0 mm | - | - | - |
| 1777104501 | 0.56° C | 75% | 996.4 hPa | 0 mm | - | - | - |
| 1777103900 | 0.56° C | 75% | 996.3 hPa | 0 mm | - | - | - |
| 1777102701 | 0.56° C | 73% | 996.2 hPa | 0 mm | - | - | - |
| 1777102100 | 0.56° C | 73% | 996.2 hPa | 0 mm | - | - | - |
| 1777100900 | 0.56° C | 71% | 996.1 hPa | 0 mm | - | - | - |
| 1777100300 | 1.11° C | 70% | 996 hPa | 0 mm | - | - | - |
| 1777099700 | 1.11° C | 69% | 996.1 hPa | 0 mm | - | - | - |
| 1777099100 | 1.67° C | 68% | 995.8 hPa | 0 mm | - | - | - |
| 1777098500 | 1.67° C | 68% | 995.7 hPa | 0 mm | - | - | - |
| 1777097900 | 1.67° C | 67% | 995.8 hPa | 0 mm | - | - | - |
| 1777097300 | 2.22° C | 68% | 995.4 hPa | 0 mm | - | - | - |
| 1777096100 | 2.22° C | 65% | 995.5 hPa | 0 mm | - | - | - |
| 1777094300 | 2.78° C | 64% | 995.3 hPa | 0 mm | - | - | - |
| 1777092499 | 3.33° C | 59% | 995.5 hPa | 0 mm | - | - | - |
| 1777091902 | 3.89° C | 56% | 995.5 hPa | 0 mm | - | - | - |
| 1777091301 | 3.89° C | 55% | 995.5 hPa | 0 mm | - | - | - |
| 1777090700 | 4.44° C | 55% | 995.1 hPa | 0 mm | - | - | - |
* Rain latest hour (hover to see other rain measurements)
** Current wind speed in m/s (hover to see current wind gust speed)